Home   Weather   Québec   Past weeks

Flag for Canada Past Weather in Québec, Quebec, Canada — Yesterday and Last 2 Weeks

Now
30 °F

Light snow. Passing clouds.


Feels Like: 27 °F
Forecast: 25 / 35 °F
Wind: 3 mph from Northwest

Location: Quebec Weather Station

Current Time: Dec 3, 2016 at 4:53:04 am

Latest Report: Dec 3, 2016 at 4:00 am


Visibility: 15 mi

Pressure: 29.77 "Hg

Humidity: 100%

Dew Point: 30 °F

Location of QuébecLocation

Past Weather in Québec — Graph

°F

Québec Temperature Yesterday

Maximum temperature yesterday: 32 °F (at 12:00 am)
Minimum temperature yesterday: 32 °F (at 12:00 am)
Average temperature yesterday: 32 °F

High & Low Weather Summary for the Past Weeks

 TemperatureHumidityPressure
High45 °F (Nov 20, 9:00 pm)100% (Nov 20, 2:00 pm)30.39 "Hg (Nov 20, 2:00 pm)
Low23 °F (Nov 23, 9:00 pm)56% (Nov 23, 11:00 am)29.10 "Hg (Nov 20, 9:00 pm)
Average33 °F91%29.89 "Hg
* Reported Nov 18 3:00 am — Dec 3 3:00 am, Québec, Weather by CustomWeather, © 2016

Note: Actual official high and low records may vary slightly from our data, if they occured in-between our weather recording intervals... More about our weather records

Advertising

Québec Weather History for the Previous 24 Hours

Scroll right to see more
 ConditionsComfort  
Time TempWeatherWind HumidityBarometerVisibility
3:00 am
Sat, Dec 3
30 °FLight snow. Ice fog.2 mph100%29.75 "Hg4 mi
2:00 am32 °FLight snow. Ice fog.2 mph93%29.73 "Hg6 mi
1:00 am32 °FLight snow. Ice fog.2 mph93%29.70 "Hg6 mi
12:00 am32 °FLight snow. Ice fog.2 mph93%29.69 "Hg1 mi
11:00 pm
Fri, Dec 2
32 °FLight snow. Ice fog.2 mph100%29.68 "Hg1 mi
10:00 pm32 °FLight snow. Ice fog.3 mph100%29.67 "Hg1 mi
9:00 pm32 °FLight snow. Ice fog.3 mph100%29.65 "Hg1 mi
8:47 pm32 °FLight snow. Ice fog.5 mph100%29.65 "Hg1 mi
8:00 pm32 °FLight snow. Mostly cloudy.6 mph100%29.65 "Hg2 mi
7:00 pm32 °FLight snow. Overcast.5 mph100%29.65 "Hg1 mi
6:00 pm32 °FLight snow. Mostly cloudy.3 mph100%29.63 "Hg1 mi
5:00 pm32 °FLight snow. Dense fog.5 mph100%29.62 "Hg1 mi
4:00 pm32 °FLight snow. Dense fog.12 mph100%29.61 "Hg1 mi
3:00 pm32 °FLight snow. Ice fog.7 mph100%29.61 "Hg1 mi
2:00 pm32 °FLight snow. Ice fog.9 mph100%29.60 "Hg1 mi
1:00 pm32 °FLight snow. Ice fog.8 mph100%29.60 "Hg1 mi
12:47 pm32 °FLight snow. Ice fog.8 mph100%29.60 "Hg1 mi
12:00 pm32 °FLight snow. Ice fog.10 mph100%29.61 "Hg1 mi
11:00 am32 °FLight snow. Ice fog.7 mph100%29.62 "Hg1 mi
10:00 am32 °FLight snow. Ice fog.8 mph100%29.64 "Hg1 mi
9:00 am32 °FLight snow. Ice fog.5 mph100%29.63 "Hg1 mi
8:00 am32 °FLight snow. Ice fog.6 mph100%29.62 "Hg1 mi
7:00 am32 °FLight snow. Ice fog.3 mph100%29.62 "Hg1 mi
6:56 am32 °FLight snow. Low clouds.2 mph100%29.62 "Hg1 mi
6:00 am32 °FLight snow. Ice fog.2 mph100%29.61 "Hg2 mi
5:00 am32 °FLight snow. Ice fog.2 mph100%29.60 "Hg2 mi
4:50 am32 °FLight snow. Ice fog.No wind100%29.60 "Hg2 mi
4:00 am32 °FLight snow. Ice fog.No wind100%29.59 "Hg4 mi
Weather by CustomWeather, © 2016

See weather overviewHow to use our weather pages